�N����,����,����,����,����,�C��,���x,�~����,�S�V����,�ő�u�ԕ���,,,,,
,,,,,,,,,����,����,����,�N��,,
yyyy/mm/dd,hh:mm:ss,(16),16����,m/s,��,%,mm,KW/�u,(16),16����,m/s,Time,,
2020/8/1,1:00:00,14,�k��,2,17.9,100,0,0,14,�k��,3.1,50,,
2020/8/1,2:00:00,14,�k��,0.9,18.1,100,0,0,15,�k�k��,2.8,9,,
2020/8/1,3:00:00,15,�k�k��,1,18,100,0,0,16,�k,2.3,29,,
2020/8/1,4:00:00,16,�É�,0.2,15.8,100,0,0,15,�k�k��,1.7,21,,
2020/8/1,5:00:00,13,���k��,1.4,16.2,100,0,0.02,13,���k��,2.4,51,,
2020/8/1,6:00:00,13,���k��,2.6,18.1,100,0,0.16,13,���k��,4.2,58,,
2020/8/1,7:00:00,15,�k�k��,1.7,20.8,91.5,0,0.37,14,�k��,4.5,4,,
2020/8/1,8:00:00,4,��,2.1,21.9,87.9,0,0.56,14,�k��,3.8,17,,
2020/8/1,9:00:00,4,��,2.5,23.5,81.8,0,0.73,4,��,4.1,24,,
2020/8/1,10:00:00,4,��,4.1,22,83.5,0,0.86,4,��,5.5,58,,
2020/8/1,11:00:00,4,��,3.9,21.7,83.4,0,0.95,3,���k��,6.4,15,,
2020/8/1,12:00:00,4,��,4.1,21.9,84.8,0,0.87,4,��,6.4,19,,
2020/8/1,13:00:00,4,��,4,20.6,90.7,0,0.6,4,��,6.8,40,,
2020/8/1,14:00:00,4,��,4.2,20.5,90.1,0,0.5,4,��,6.4,31,,
2020/8/1,15:00:00,4,��,1.9,19.9,94.4,0,0.37,5,���쓌,5.4,4,,
2020/8/1,16:00:00,4,��,1.6,19.6,96.9,0,0.23,4,��,3.4,2,,
2020/8/1,17:00:00,5,���쓌,0.9,19.2,98.1,0,0.14,6,�쓌,2.9,42,,
2020/8/1,18:00:00,5,���쓌,0.7,18.8,98.8,0,0.06,5,���쓌,2,17,,
2020/8/1,19:00:00,4,��,1.6,18.6,99.5,0,0.01,4,��,2.5,56,,
2020/8/1,20:00:00,4,��,1.2,18.5,99.9,0,0,4,��,2.4,31,,
2020/8/1,21:00:00,3,���k��,0.3,18.3,100,0,0,4,��,2.7,15,,
2020/8/1,22:00:00,13,���k��,1.2,18.3,100,0,0,13,���k��,1.7,55,,
2020/8/1,23:00:00,12,��,0.8,18.3,100,0,0,12,��,1.8,26,,
2020/8/1,0:00:00,13,���k��,1.3,18.3,100,0,0,13,���k��,2.5,54,,
2020/8/2,1:00:00,16,�k,0.3,18.4,100,0,0,13,���k��,1.9,2,,
2020/8/2,2:00:00,6,�쓌,0.4,18.3,100,0,0,15,�k�k��,1.5,29,,
2020/8/2,3:00:00,13,���k��,0.6,18.3,100,0,0,14,�k��,1,59,,
2020/8/2,4:00:00,13,���k��,1.4,18.2,100,0,0,13,���k��,2.9,41,,
2020/8/2,5:00:00,14,�k��,1.1,18.3,100,0,0.01,14,�k��,2.5,34,,
2020/8/2,6:00:00,13,���k��,1.5,18.7,100,0,0.06,13,���k��,3.2,45,,
2020/8/2,7:00:00,14,�k��,0.8,19,100,0,0.1,14,�k��,2.3,10,,
2020/8/2,8:00:00,16,�É�,0,19.8,99.7,0,0.17,13,���k��,1.5,8,,
2020/8/2,9:00:00,5,���쓌,1.3,20.3,98.8,0,0.2,5,���쓌,2.3,45,,
2020/8/2,10:00:00,6,�쓌,2.5,20.6,96.3,0,0.34,5,���쓌,3.4,55,,
2020/8/2,11:00:00,5,���쓌,2.5,20.2,97.6,0,0.32,6,�쓌,3.5,56,,
2020/8/2,12:00:00,5,���쓌,2.6,21.5,94.2,0,0.42,5,���쓌,3.5,54,,
2020/8/2,13:00:00,5,���쓌,2.2,20.7,95.4,0,0.34,5,���쓌,3.5,31,,
2020/8/2,14:00:00,6,�쓌,2.9,19.4,95.8,0,0.29,6,�쓌,5.1,58,,
2020/8/2,15:00:00,6,�쓌,1.9,19.4,96.5,0,0.23,6,�쓌,5.2,3,,
2020/8/2,16:00:00,6,�쓌,2.4,18.9,97.1,0,0.2,8,��,5,37,,
2020/8/2,17:00:00,5,���쓌,2.4,18.3,97.8,0,0.1,7,��쓌,4.3,11,,
2020/8/2,18:00:00,5,���쓌,2.4,18.1,99.5,0,0.04,5,���쓌,4,43,,
2020/8/2,19:00:00,16,�É�,0,18.4,99.5,0,0.02,4,��,4,21,,
2020/8/2,20:00:00,8,��,1.4,18.1,99.9,0,0,8,��,2.6,53,,
2020/8/2,21:00:00,12,��,1.3,17.3,99.8,0,0,8,��,5.5,18,,
2020/8/2,22:00:00,6,�쓌,0.6,18,100,0,0,9,��쐼,2,30,,
2020/8/2,23:00:00,12,��,0.7,18.2,100,0,0,14,�k��,1.8,59,,
2020/8/2,0:00:00,16,�É�,0.1,18,100,0,0,14,�k��,3,16,,
2020/8/3,1:00:00,9,��쐼,1.4,18.2,100,0,0,8,��,2.5,46,,
2020/8/3,2:00:00,8,��,0.9,18.2,100,0,0,7,��쓌,2.1,46,,
2020/8/3,3:00:00,1,�k�k��,0.9,18.1,100,0,0,1,�k�k��,1.4,47,,
2020/8/3,4:00:00,2,�k��,0.3,18.2,100,0,0,2,�k��,1.3,10,,
2020/8/3,5:00:00,3,���k��,0.7,18.2,100,0,0.01,2,�k��,1.2,54,,
2020/8/3,6:00:00,16,�É�,0.1,18.3,100,0,0.04,4,��,2.4,31,,
2020/8/3,7:00:00,14,�k��,0.9,19.9,100,0,0.16,15,�k�k��,2.1,38,,
2020/8/3,8:00:00,10,�쐼,1,21.3,91.6,0,0.34,11,���쐼,2.7,59,,
2020/8/3,9:00:00,7,��쓌,1.5,21.3,90.1,0,0.4,6,�쓌,4.4,13,,
2020/8/3,10:00:00,5,���쓌,2.4,20.7,94.3,0,0.39,6,�쓌,3.6,36,,
2020/8/3,11:00:00,4,��,2.6,20,97.8,0,0.25,4,��,4.1,59,,
2020/8/3,12:00:00,6,�쓌,1.6,21.2,94.9,0,0.33,4,��,4.8,23,,
2020/8/3,13:00:00,7,��쓌,1.8,21.2,94.5,0,0.39,7,��쓌,4.1,46,,
2020/8/3,14:00:00,5,���쓌,2.5,21.5,91.9,0,0.47,6,�쓌,4.3,57,,
2020/8/3,15:00:00,6,�쓌,2.1,21.5,91.2,0,0.34,5,���쓌,4.1,2,,
2020/8/3,16:00:00,6,�쓌,2.9,20.3,95.2,0,0.19,6,�쓌,6.1,59,,
2020/8/3,17:00:00,5,���쓌,1.7,19.6,96.9,0,0.1,5,���쓌,3.8,1,,
2020/8/3,18:00:00,8,��,2.5,19.7,97.9,0,0.03,8,��,5.1,35,,
2020/8/3,19:00:00,10,�쐼,2.3,19.2,98.9,0,0.01,9,��쐼,6.3,4,,
2020/8/3,20:00:00,10,�쐼,1.7,19.4,99.4,0,0,8,��,6.6,21,,
2020/8/3,21:00:00,10,�쐼,3,19.3,99.6,0,0,8,��,5.1,6,,
2020/8/3,22:00:00,10,�쐼,1.7,18.9,99.9,0,0,10,�쐼,4.8,18,,
2020/8/3,23:00:00,8,��,2.5,19,100,0,0,9,��쐼,5.3,38,,
2020/8/3,0:00:00,9,��쐼,1.8,19.4,100,0,0,10,�쐼,5,59,,
2020/8/4,1:00:00,9,��쐼,2.6,18.8,100,0,0,8,��,5.4,22,,
2020/8/4,2:00:00,9,��쐼,2.8,19.3,100,0,0,8,��,5.3,50,,
2020/8/4,3:00:00,10,�쐼,2.9,18.7,100,0,0,8,��,7.4,14,,
2020/8/4,4:00:00,8,��,3.1,18.7,100,3,0,8,��,5.9,54,,
2020/8/4,5:00:00,9,��쐼,1.2,19.3,100,0,0,8,��,4.2,1,,
2020/8/4,6:00:00,10,�쐼,3.6,19.7,100,0,0.02,10,�쐼,6.2,59,,
2020/8/4,7:00:00,10,�쐼,2.2,19.4,100,0,0.09,9,��쐼,6.4,9,,
2020/8/4,8:00:00,9,��쐼,1.2,21.1,100,0,0.21,10,�쐼,2.8,24,,
2020/8/4,9:00:00,5,���쓌,1.1,21.5,96.4,0,0.28,7,��쓌,2.8,45,,
2020/8/4,10:00:00,4,��,0.6,27.3,0,0.61,5,2.5,�k��,12,,,
2020/8/4,11:00:00,6,�쓌,1.5,22.9,89.9,0,0.37,,,,,,
2020/8/4,12:00:00,6,�쓌,1.5,24,86.9,0,0.52,7,��쓌,3.3,49,,
2020/8/4,13:00:00,9,��쐼,2.5,27.3,72.3,0,0.59,8,��,5,59,,
2020/8/4,14:00:00,9,��쐼,3,28.8,66.3,0,0.91,8,��,6.3,27,,
2020/8/4,15:00:00,9,��쐼,3.1,28.9,66.7,0,0.73,8,��,6.8,24,,
2020/8/4,16:00:00,8,��,3.2,25.4,76.2,0,0.34,10,�쐼,7.4,11,,
2020/8/4,17:00:00,9,��쐼,2.1,24.7,78.8,0,0.14,8,��,4.7,3,,
2020/8/4,18:00:00,9,��쐼,2.7,24.5,81,0,0.05,9,��쐼,7,34,,
2020/8/4,19:00:00,10,�쐼,2.9,23.3,86.2,0,0.01,8,��,6.5,33,,
2020/8/4,20:00:00,8,��,1.4,21.7,90,0,0,10,�쐼,4.2,1,,
2020/8/4,21:00:00,10,�쐼,0.9,21,95.7,0,0,12,��,2.4,35,,
2020/8/4,22:00:00,15,�k�k��,0.7,20.3,98.3,0,0,2,�k��,2,59,,
2020/8/4,23:00:00,13,���k��,0.8,20.5,98.4,0,0,2,�k��,2.1,0,,
2020/8/4,0:00:00,16,�É�,0,20.8,98.7,0,0,15,�k�k��,1.6,6,,
2020/8/5,1:00:00,16,�É�,0.1,20.4,97.8,0,0,6,�쓌,2.5,30,,
2020/8/5,2:00:00,16,�É�,0.2,20.4,98.4,0,0,15,�k�k��,2.4,23,,
2020/8/5,3:00:00,9,��쐼,1.4,22.4,91.8,0,0,7,��쓌,3.9,53,,
2020/8/5,4:00:00,9,��쐼,2.6,20.4,94,0,0,10,�쐼,5.6,37,,
2020/8/5,5:00:00,8,��,2.7,18.9,98,1,0,9,��쐼,5.2,4,,
2020/8/5,6:00:00,14,�k��,1.5,19.8,97,1,0.03,8,��,5.5,29,,
2020/8/5,7:00:00,14,�k��,1.3,21.4,95.8,0,0.09,10,�쐼,2.5,21,,
2020/8/5,8:00:00,15,�k�k��,0.5,23.6,94.1,0,0.16,1,�k�k��,2.5,31,,
2020/8/5,9:00:00,11,���쐼,1.2,25.7,94.5,0,0.21,8,��,2.5,41,,
2020/8/5,10:00:00,9,��쐼,2.7,26.8,81.1,0,0.57,9,��쐼,5.3,55,,
2020/8/5,11:00:00,7,��쓌,3.7,28.4,70.4,0,0.92,10,�쐼,7.5,20,,
2020/8/5,12:00:00,5,���쓌,1.7,29.6,76.4,0,0.64,7,��쓌,6.4,0,,
2020/8/5,13:00:00,12,��,4.5,33,46.3,0,0.86,12,��,8.5,42,,
2020/8/5,14:00:00,11,���쐼,6.2,32.9,46.7,0,0.8,12,��,8.5,10,,
2020/8/5,15:00:00,11,���쐼,3.5,29.5,60.4,0,0.57,12,��,10.5,12,,
2020/8/5,16:00:00,11,���쐼,5.2,28.4,64.8,0,0.19,11,���쐼,7.8,50,,
2020/8/5,17:00:00,11,���쐼,2,27.4,72.7,0,0.15,11,���쐼,7,1,,
2020/8/5,18:00:00,14,�k��,0.9,25.8,79.2,0,0.04,11,���쐼,4.8,8,,
2020/8/5,19:00:00,12,��,2.4,26,74.8,0,0,12,��,6.1,30,,
2020/8/5,20:00:00,12,��,1.7,23.9,87.1,0,0,12,��,5.4,4,,
2020/8/5,21:00:00,16,�É�,0.1,22.8,92.9,0,0,14,�k��,3.1,2,,
2020/8/5,22:00:00,11,���쐼,1.2,21.9,97.4,0,0,8,��,3.6,15,,
2020/8/5,23:00:00,12,��,2.5,22.2,98.2,0,0,12,��,3.6,56,,
2020/8/5,0:00:00,3,���k��,1,21.5,97.6,0,0,12,��,3.3,0,,
2020/8/6,1:00:00,12,��,0.3,21.1,98.9,0,0,16,�k,2.1,15,,
2020/8/6,2:00:00,3,���k��,0.5,21.2,98.9,0,0,10,�쐼,2.3,38,,
2020/8/6,3:00:00,16,�É�,0.2,20.8,99.2,0,0,1,�k�k��,1.9,8,,
2020/8/6,4:00:00,14,�k��,0.3,20.4,99.3,0,0,14,�k��,1.3,29,,
2020/8/6,5:00:00,1,�k�k��,0.7,21.3,99.3,0.5,0,9,��쐼,2.6,23,,
2020/8/6,6:00:00,14,�k��,0.8,21.4,99.3,0.5,0.02,15,�k�k��,1.6,0,,
2020/8/6,7:00:00,7,��쓌,0.5,22.3,99.5,0.5,0.08,16,�k,1.6,2,,
2020/8/6,8:00:00,5,���쓌,1.3,22.4,99,0,0.18,6,�쓌,2.3,0,,
2020/8/6,9:00:00,9,��쐼,0.5,23.8,94.1,0,0.33,5,���쓌,2.5,2,,
2020/8/6,10:00:00,7,��쓌,1.9,22.6,92.8,0,0.37,7,��쓌,3.1,57,,
2020/8/6,11:00:00,8,��,0.5,23.6,94.3,0.5,0.29,7,��쓌,3.3,1,,
2020/8/6,12:00:00,6,�쓌,2.2,24.1,86.1,0,0.5,6,�쓌,4.1,56,,
2020/8/6,13:00:00,5,���쓌,2,26,86.2,0,0.85,6,�쓌,3.9,55,,
2020/8/6,14:00:00,6,�쓌,1.3,24,85.6,0,0.38,6,�쓌,3.4,38,,
2020/8/6,15:00:00,9,��쐼,2.2,24.9,83.1,0,0.22,10,�쐼,3.7,57,,
2020/8/6,16:00:00,9,��쐼,3,25,81.4,0,0.12,9,��쐼,5,54,,
2020/8/6,17:00:00,12,��,0.5,23.5,89,0,0.05,9,��쐼,4.6,6,,
2020/8/6,18:00:00,3,���k��,0.7,22.5,91.6,0,0.01,1,�k�k��,2.3,59,,
2020/8/6,19:00:00,2,�k��,2.6,20.5,95.1,0,0,2,�k��,5.5,38,,
2020/8/6,20:00:00,2,�k��,2.6,20.4,95.7,0.5,0,2,�k��,5.4,3,,
2020/8/6,21:00:00,2,�k��,1.3,20.1,96.6,0,0,1,�k�k��,4.4,12,,
2020/8/6,22:00:00,2,�k��,2.1,19.5,97.3,0,0,2,�k��,3.4,54,,
2020/8/6,23:00:00,3,���k��,3.2,18.4,98.8,0,0,3,���k��,5.1,54,,
2020/8/6,0:00:00,2,�k��,2.3,18.3,99.9,0,0,2,�k��,5.5,9,,
2020/8/7,1:00:00,3,���k��,2.3,18.5,100,0,0,2,�k��,4.9,22,,
2020/8/7,2:00:00,3,���k��,3,18.4,100,0,0,4,��,5.3,6,,
2020/8/7,3:00:00,3,���k��,3.7,18.4,100,0,0,3,���k��,6.5,35,,
2020/8/7,4:00:00,5,���쓌,1.9,19,100,0,0,4,��,4.4,0,,
2020/8/7,5:00:00,5,���쓌,1.8,18.8,100,0,0,6,�쓌,3.2,43,,
2020/8/7,6:00:00,7,��쓌,2.3,18.9,100,0,0.03,9,��쐼,4.3,59,,
2020/8/7,7:00:00,9,��쐼,1.6,20.1,100,0,0.11,10,�쐼,5.3,39,,
2020/8/7,8:00:00,8,��,6.1,19.6,100,0,0.18,8,��,13.2,54,,
2020/8/7,9:00:00,7,��쓌,4.9,19.4,99.9,0,0.27,8,��,13.4,7,,
2020/8/7,10:00:00,6,�쓌,3.5,24.7,81.1,0,0.34,11,���쐼,12.3,44,,
2020/8/7,11:00:00,7,��쓌,4.8,24,71.8,0,0.37,7,��쓌,9.7,54,,
2020/8/7,12:00:00,8,��,6.3,24.9,64.8,0,0.37,7,��쓌,12.2,40,,
2020/8/7,13:00:00,10,�쐼,9.5,24.8,63.5,0,0.27,10,�쐼,15.3,19,,
2020/8/7,14:00:00,10,�쐼,12.2,23.7,65.4,0,0.19,10,�쐼,18.9,50,,
2020/8/7,15:00:00,11,���쐼,7.4,24.4,64.7,0,0.21,10,�쐼,17.1,11,,
2020/8/7,16:00:00,11,���쐼,7.8,24.5,63.1,0,0.2,10,�쐼,15.6,24,,
2020/8/7,17:00:00,11,���쐼,8.1,25.1,57.3,0,0.27,13,���k��,16.5,39,,
2020/8/7,18:00:00,12,��,5.3,23.6,62.7,0,0.21,11,���쐼,13.7,4,,
2020/8/7,19:00:00,11,���쐼,5.7,23.1,63.8,0,0.02,12,��,11.9,37,,
2020/8/7,20:00:00,12,��,3.8,22.5,65.4,0,0,13,���k��,11.1,7,,
2020/8/7,21:00:00,12,��,3.8,22.1,66.3,0,0,13,���k��,7.4,11,,
2020/8/7,22:00:00,4,��,1.2,18.3,86.9,0,0,12,��,5.2,1,,
2020/8/7,23:00:00,15,�k�k��,0.8,16.5,93.7,0,0,1,�k�k��,2,32,,
2020/8/7,0:00:00,13,���k��,0.4,16.5,96.5,0,0,13,���k��,2,49,,
2020/8/8,1:00:00,12,��,1.2,16.2,96.1,0,0,13,���k��,2.3,51,,
2020/8/8,2:00:00,11,���쐼,0.9,15.4,96.5,0,0,8,��,2.6,33,,
2020/8/8,3:00:00,12,��,1.4,15.8,97.3,0,0,12,��,2.1,5,,
2020/8/8,4:00:00,14,�k��,1,15.1,97.4,0,0,13,���k��,2.3,49,,
2020/8/8,5:00:00,13,���k��,2.8,16.1,93.3,0,0.01,12,��,4,52,,
2020/8/8,6:00:00,13,���k��,3.4,18.3,82.7,0,0.08,13,���k��,6.4,58,,
2020/8/8,7:00:00,14,�k��,3.3,20.1,71.3,0,0.24,13,���k��,7.2,33,,
2020/8/8,8:00:00,15,�k�k��,1.2,21.6,68.6,0,0.35,14,�k��,6.1,6,,
2020/8/8,9:00:00,7,��쓌,2.1,22.9,67.9,0,0.49,6,�쓌,5.7,44,,
2020/8/8,10:00:00,7,��쓌,3.4,21.2,67.9,0,0.79,6,�쓌,7.3,34,,
2020/8/8,11:00:00,7,��쓌,4.5,22.2,62.5,0,0.89,8,��,7.6,38,,
2020/8/8,12:00:00,8,��,3.5,22.5,63,0,0.97,8,��,7.4,19,,
2020/8/8,13:00:00,6,�쓌,3,21.9,65.8,0,0.94,6,�쓌,6.3,51,,
2020/8/8,14:00:00,6,�쓌,2.8,21.7,66.5,0,0.6,7,��쓌,4.3,16,,
2020/8/8,15:00:00,6,�쓌,1.8,20.2,75.5,0,0.36,6,�쓌,4.2,1,,
2020/8/8,16:00:00,4,��,2.6,19.6,81.1,0,0.24,4,��,3.8,53,,
2020/8/8,17:00:00,3,���k��,3.3,18.6,89.1,0,0.1,3,���k��,4.7,39,,
2020/8/8,18:00:00,3,���k��,2.6,17.5,90.8,0,0.08,3,���k��,5.8,33,,
2020/8/8,19:00:00,3,���k��,3.4,16.6,92.7,0,0.01,3,���k��,6.3,34,,
2020/8/8,20:00:00,2,�k��,2.5,16.3,94.2,0,0,3,���k��,5.3,41,,
2020/8/8,21:00:00,2,�k��,2.1,16.4,93.3,0,0,3,���k��,4,0,,
2020/8/8,22:00:00,2,�k��,1.8,16.1,91,0,0,2,�k��,3.7,26,,
2020/8/8,23:00:00,1,�k�k��,2.5,16,92.5,0,0,1,�k�k��,4.2,49,,
2020/8/8,0:00:00,2,�k��,3.1,15.5,95.3,0,0,1,�k�k��,5.1,39,,
2020/8/9,1:00:00,2,�k��,2.4,15.1,97.3,0,0,2,�k��,5.4,4,,
2020/8/9,2:00:00,1,�k�k��,2.5,15,96.9,0,0,1,�k�k��,4.6,0,,
2020/8/9,3:00:00,1,�k�k��,2,14.9,97.7,0,0,1,�k�k��,4,33,,
2020/8/9,4:00:00,1,�k�k��,1.4,14.9,98.2,0,0,1,�k�k��,3.8,18,,
2020/8/9,5:00:00,16,�k,1.2,15.1,97.7,0,0.01,1,�k�k��,2.8,10,,
2020/8/9,6:00:00,1,�k�k��,0.9,15.3,98.3,0,0.02,16,�k,2.1,44,,
2020/8/9,7:00:00,1,�k�k��,1.7,15.6,99.3,0,0.06,1,�k�k��,2.5,56,,
2020/8/9,8:00:00,1,�k�k��,2,16.1,98.6,0,0.09,16,�k,3,52,,
2020/8/9,9:00:00,2,�k��,1.6,16.4,99,0,0.08,16,�k,2.9,30,,
2020/8/9,10:00:00,2,�k��,1.4,17.4,97.1,0,0.2,2,�k��,2.4,59,,
2020/8/9,11:00:00,3,���k��,2.6,16.8,98.6,0,0.25,3,���k��,3.9,27,,
2020/8/9,12:00:00,4,��,3.1,17.6,98.3,0,0.31,4,��,4.2,59,,
2020/8/9,13:00:00,3,���k��,2.4,17.1,98.7,0,0.24,4,��,4.8,18,,
2020/8/9,14:00:00,2,�k��,1.5,18,99.2,0.5,0.19,3,���k��,3.8,21,,
2020/8/9,15:00:00,3,���k��,2.2,17.8,98.7,0.5,0.16,3,���k��,3.2,52,,
2020/8/9,16:00:00,3,���k��,2.1,18.1,99.3,0,0.13,4,��,3.2,31,,
2020/8/9,17:00:00,3,���k��,2,17.8,99.4,0.5,0.08,3,���k��,3.2,47,,
2020/8/9,18:00:00,2,�k��,1.5,17.6,99.7,0.5,0.03,3,���k��,3.2,7,,
2020/8/9,19:00:00,1,�k�k��,0.7,17.7,99.9,1,0,3,���k��,2.1,3,,
2020/8/9,20:00:00,2,�k��,1.2,17.8,100,0.5,0,1,�k�k��,2.1,57,,
2020/8/9,21:00:00,16,�É�,0.2,17.8,100,0.5,0,1,�k�k��,2.3,11,,
2020/8/9,22:00:00,1,�k�k��,0.5,17.9,100,0.5,0,16,�k,1.1,2,,
2020/8/9,23:00:00,16,�k,0.5,17.9,100,0.5,0,16,�k,1.6,28,,
2020/8/9,0:00:00,2,�k��,0.9,18,100,0,0,2,�k��,1.5,59,,
2020/8/10,1:00:00,2,�k��,1.2,17.9,100,0,0,2,�k��,2.5,40,,
2020/8/10,2:00:00,16,�k,0.7,17.9,100,0,0,1,�k�k��,1.7,2,,
2020/8/10,3:00:00,14,�k��,0.7,18,100,0,0,1,�k�k��,1.5,8,,
2020/8/10,4:00:00,13,���k��,0.8,18.1,100,0,0,12,��,2.1,5,,
2020/8/10,5:00:00,16,�É�,0.1,18.3,99.9,0.5,0.01,14,�k��,1.4,47,,
2020/8/10,6:00:00,14,�k��,0.6,18.9,99.3,0,0.06,14,�k��,1.5,13,,
2020/8/10,7:00:00,13,���k��,1.3,19.9,95.9,0,0.16,13,���k��,2.4,41,,
2020/8/10,8:00:00,16,�É�,0.1,21.1,92.1,0,0.22,13,���k��,2.6,30,,
2020/8/10,9:00:00,7,��쓌,1.9,20.1,95.4,0,0.29,8,��,3.2,31,,
2020/8/10,10:00:00,5,���쓌,2.1,21.3,89.6,0,0.58,6,�쓌,3.8,27,,
2020/8/10,11:00:00,6,�쓌,2.5,20.5,90.7,0,0.57,5,���쓌,4,46,,
2020/8/10,12:00:00,8,��,3,19.4,92.7,0,0.43,7,��쓌,4.2,51,,
2020/8/10,13:00:00,7,��쓌,2.5,18.8,96.8,0,0.28,7,��쓌,4.4,6,,
2020/8/10,14:00:00,8,��,1.6,19.4,94.8,0,0.23,8,��,3.5,23,,
2020/8/10,15:00:00,7,��쓌,1.4,18.5,96,0,0.13,6,�쓌,2.5,46,,
2020/8/10,16:00:00,7,��쓌,1.2,19,95.1,0,0.16,7,��쓌,2.5,36,,
2020/8/10,17:00:00,6,�쓌,1.5,18.3,97.7,0,0.11,5,���쓌,3.2,43,,
2020/8/10,18:00:00,3,���k��,0.9,18.3,98.7,0,0.05,4,��,2.2,45,,
2020/8/10,19:00:00,16,�É�,0.2,17.8,99.6,0,0.01,1,�k�k��,2.1,8,,
2020/8/10,20:00:00,10,�쐼,1.1,17.7,100,0,0,10,�쐼,1.8,54,,
2020/8/10,21:00:00,3,���k��,1.1,17.7,100,0,0,3,���k��,2.5,45,,
2020/8/10,22:00:00,2,�k��,2,17.2,100,0,0,1,�k�k��,4,52,,
2020/8/10,23:00:00,16,�k,0.6,17.4,100,0,0,3,���k��,2.1,10,,
2020/8/10,0:00:00,14,�k��,2,17.7,100,0,0,12,��,3.1,36,,
2020/8/11,1:00:00,5,���쓌,1.1,17.1,100,0,0,15,�k�k��,2.6,0,,
2020/8/11,2:00:00,2,�k��,1.7,17.4,100,0,0,1,�k�k��,3,46,,
2020/8/11,3:00:00,16,�k,0.9,17.7,100,0,0,1,�k�k��,2.3,15,,
2020/8/11,4:00:00,14,�k��,0.7,18,100,0,0,16,�k,2,2,,
2020/8/11,5:00:00,14,�k��,0.7,18.8,100,0,0.01,13,���k��,2.2,17,,
2020/8/11,6:00:00,3,���k��,2.1,21.3,94.1,0,0.19,4,��,3.7,58,,
2020/8/11,7:00:00,5,���쓌,2.3,22.4,89.9,0,0.19,5,���쓌,3.8,53,,
2020/8/11,8:00:00,10,�쐼,2.5,26.1,81,0,0.25,10,�쐼,4.3,58,,
2020/8/11,9:00:00,9,��쐼,3.5,27.4,72.3,0,0.62,8,��,8,30,,
2020/8/11,10:00:00,7,��쓌,3.5,22.7,80.1,0,0.35,10,�쐼,5.9,7,,
2020/8/11,11:00:00,8,��,3.7,27.3,62.5,0,0.79,9,��쐼,7.1,59,,
2020/8/11,12:00:00,9,��쐼,3.4,30.4,62,0,0.9,8,��,6.9,1,,
2020/8/11,13:00:00,9,��쐼,2.8,33.5,53.3,0,0.73,9,��쐼,6.4,6,,
2020/8/11,14:00:00,10,�쐼,5.1,32.8,54.9,0,0.75,10,�쐼,8.8,51,,
2020/8/11,15:00:00,7,��쓌,2.5,24.8,76.6,0,0.32,10,�쐼,8.5,1,,
2020/8/11,16:00:00,10,�쐼,4.5,31.4,63,0,0.46,10,�쐼,9.4,54,,
2020/8/11,17:00:00,10,�쐼,5.6,29.1,70.4,0,0.27,10,�쐼,11.2,55,,
2020/8/11,18:00:00,10,�쐼,6.8,28.2,72.6,0,0.09,10,�쐼,11.3,50,,
2020/8/11,19:00:00,11,���쐼,6,28.1,71.1,0,0.01,12,��,11.5,44,,
2020/8/11,20:00:00,11,���쐼,5,28.5,65.7,0,0,10,�쐼,11.7,4,,
2020/8/11,21:00:00,12,��,1.3,26.2,74.4,0,0,12,��,9.3,1,,
2020/8/11,22:00:00,12,��,3.6,27.3,71,0,0,13,���k��,7.9,55,,
2020/8/11,23:00:00,5,���쓌,0.8,23.6,88.6,0,0,12,��,6.1,0,,
2020/8/11,0:00:00,5,���쓌,2,22.2,89.7,0,0,6,�쓌,3.2,43,,
2020/8/12,1:00:00,3,���k��,1.7,23.1,86.6,0,0,14,�k��,3.9,43,,
2020/8/12,2:00:00,2,�k��,1.7,23.1,89.6,0,0,14,�k��,3.9,32,,
2020/8/12,3:00:00,2,�k��,2.9,24.3,79,0,0,3,���k��,6.4,51,,
2020/8/12,4:00:00,1,�k�k��,1,22.7,89.2,0,0,2,�k��,3,34,,
2020/8/12,5:00:00,15,�k�k��,0.5,21.5,94.1,0,0.01,3,���k��,2,19,,
2020/8/12,6:00:00,12,��,1.2,23.1,90.1,0,0.08,5,���쓌,4.3,9,,
2020/8/12,7:00:00,10,�쐼,0.6,24.9,82.2,0,0.23,13,���k��,2.9,14,,
2020/8/12,8:00:00,14,�k��,0.7,27.1,73.9,0,0.29,13,���k��,2.1,58,,
2020/8/12,9:00:00,12,��,3.4,30.6,60.5,0,0.67,12,��,6.2,47,,
2020/8/12,10:00:00,9,��쐼,3.6,30.5,57.7,0,0.85,9,��쐼,5.6,50,,
2020/8/12,11:00:00,10,�쐼,4.8,31.6,57.1,0,0.82,8,��,7.5,20,,
2020/8/12,12:00:00,10,�쐼,6.2,31.8,51.8,0,0.85,11,���쐼,9.4,49,,
2020/8/12,13:00:00,11,���쐼,6,32.3,45.5,0,0.92,12,��,11.5,6,,
2020/8/12,14:00:00,11,���쐼,5.8,32.6,46.8,0,0.84,12,��,10.8,37,,
2020/8/12,15:00:00,11,���쐼,6.2,31.2,48.9,0,0.7,11,���쐼,10.3,5,,
2020/8/12,16:00:00,11,���쐼,5.2,30.5,50.6,0,0.53,11,���쐼,10,1,,
2020/8/12,17:00:00,11,���쐼,4.2,29,56.5,0,0.35,10,�쐼,7.8,41,,
2020/8/12,18:00:00,11,���쐼,2.8,26.6,65.8,0,0.15,11,���쐼,6,4,,
2020/8/12,19:00:00,12,��,3.7,25,70.7,0,0.01,12,��,5.3,56,,
2020/8/12,20:00:00,14,�k��,1.3,23,78.4,0,0,13,���k��,6.1,10,,
2020/8/12,21:00:00,12,��,2,22.1,84.2,0,0,11,���쐼,4.2,56,,
2020/8/12,22:00:00,11,���쐼,2.3,23.6,79.8,0,0,12,��,4.8,8,,
2020/8/12,23:00:00,15,�k�k��,1.3,22.7,83.3,0,0,11,���쐼,2.2,1,,
2020/8/12,0:00:00,16,�k,1.7,22.2,82.8,0,0,15,�k�k��,2.6,55,,
2020/8/13,1:00:00,10,�쐼,0.7,23.8,75.5,0,0,12,��,5.4,30,,
2020/8/13,2:00:00,14,�k��,0.6,18.3,92.5,0,0,10,�쐼,3.4,27,,
2020/8/13,3:00:00,9,��쐼,1.1,17.6,96.6,0,0,14,�k��,2.9,27,,
2020/8/13,4:00:00,13,���k��,0.6,17.2,98.7,0,0,12,��,2.3,36,,
2020/8/13,5:00:00,12,��,1.5,16.8,99.4,0,0.01,12,��,2.1,58,,
2020/8/13,6:00:00,15,�k�k��,1.9,21.2,85.6,0,0.06,11,���쐼,3.3,23,,
2020/8/13,7:00:00,13,���k��,1.6,22.5,85.2,0,0.18,14,�k��,4.4,13,,
2020/8/13,8:00:00,1,�k�k��,2,27.5,69.6,0,0.51,12,��,4,38,,
2020/8/13,9:00:00,15,�k�k��,1.4,29.2,65.1,0,0.69,1,�k�k��,3.6,41,,
2020/8/13,10:00:00,14,�k��,2.5,29.9,50.3,0,0.73,14,�k��,4.2,54,,
2020/8/13,11:00:00,16,�k,1.6,27.4,64.5,0,0.69,13,���k��,4.5,48,,
2020/8/13,12:00:00,14,�k��,2.9,31.2,39.2,0,0.97,1,�k�k��,6.7,19,,
2020/8/13,13:00:00,16,�k,1.6,31,42.2,0,0.94,14,�k��,6,41,,
2020/8/13,14:00:00,14,�k��,2.5,31,40.6,0,0.81,16,�k,5.8,37,,
2020/8/13,15:00:00,14,�k��,1.9,29.3,47.2,0,0.58,13,���k��,6.3,13,,
2020/8/13,16:00:00,13,���k��,2,30.3,47.6,0,0.43,12,��,4.8,55,,
2020/8/13,17:00:00,2,�k��,3.1,22.1,77.8,0,0.24,3,���k��,8.2,33,,
2020/8/13,18:00:00,1,�k�k��,2.6,22.1,80.2,0,0.05,3,���k��,7.4,26,,
2020/8/13,19:00:00,2,�k��,1.3,19.5,89.8,0,0.01,4,��,6.9,23,,
2020/8/13,20:00:00,11,���쐼,1.3,17,95.6,0,0,16,�k,3,0,,
2020/8/13,21:00:00,12,��,0.9,16.8,98.5,0,0,12,��,1.6,27,,
2020/8/13,22:00:00,12,��,1,16.3,98.8,0,0,13,���k��,1.3,3,,
2020/8/13,23:00:00,16,�É�,0.1,15.4,99,0,0,11,���쐼,2,21,,
2020/8/13,0:00:00,6,�쓌,0.8,17.4,99.1,0,0,2,�k��,2.2,19,,
2020/8/14,1:00:00,12,��,0.3,17.7,97,0,0,2,�k��,2.5,10,,
2020/8/14,2:00:00,8,��,0.5,17.3,98.3,0,0,12,��,0.9,4,,
2020/8/14,3:00:00,6,�쓌,0.3,17.5,98,0,0,8,��,1.4,8,,
2020/8/14,4:00:00,8,��,0.3,17.4,96.1,0,0,5,���쓌,1,6,,
2020/8/14,5:00:00,12,��,0.7,17.6,96.8,0,0.01,12,��,1.2,59,,
2020/8/14,6:00:00,16,�É�,0.2,18.3,89.7,0,0.06,13,���k��,2.6,26,,
2020/8/14,7:00:00,4,��,0.8,18.5,89,0,0.08,4,��,1.9,42,,
2020/8/14,8:00:00,6,�쓌,2.5,18.2,87.9,0,0.25,6,�쓌,4.1,55,,
2020/8/14,9:00:00,7,��쓌,3,18.6,81.7,0,0.55,6,�쓌,5.9,45,,
2020/8/14,10:00:00,5,���쓌,3,17.7,79.2,0,0.46,5,���쓌,5.5,47,,
2020/8/14,11:00:00,5,���쓌,3,18.1,79.4,0,0.46,6,�쓌,5.2,19,,
2020/8/14,12:00:00,5,���쓌,2.7,17.4,81.7,0,0.32,5,���쓌,5.6,4,,
2020/8/14,13:00:00,5,���쓌,2.8,18.1,78.6,0,0.48,7,��쓌,5.5,42,,
2020/8/14,14:00:00,6,�쓌,2.2,18.3,79.9,0,0.37,6,�쓌,5.2,17,,
2020/8/14,15:00:00,6,�쓌,2.3,17.5,82.6,0,0.28,6,�쓌,4.9,23,,
2020/8/14,16:00:00,6,�쓌,2.1,17.5,84.1,0,0.23,7,��쓌,4.5,44,,
2020/8/14,17:00:00,6,�쓌,1.8,17.2,89.3,0,0.11,7,��쓌,3.7,24,,
2020/8/14,18:00:00,6,�쓌,2.6,16.8,91.1,0,0.04,6,�쓌,5.3,54,,
2020/8/14,19:00:00,5,���쓌,3.1,16.7,91.4,0,0,6,�쓌,5.8,59,,
2020/8/14,20:00:00,5,���쓌,2.5,16.2,96.2,0,0,6,�쓌,5.2,19,,
2020/8/14,21:00:00,6,�쓌,2.2,16,98.1,3,0,7,��쓌,4.5,59,,
2020/8/14,22:00:00,6,�쓌,2.5,15.8,98.4,1,0,7,��쓌,5.6,20,,
2020/8/14,23:00:00,6,�쓌,2.5,15.1,96.7,1,0,6,�쓌,5.8,30,,
2020/8/14,0:00:00,4,��,2.5,14.7,98.7,4,0,5,���쓌,4.1,40,,
2020/8/15,1:00:00,3,���k��,1.7,14.7,99.6,4.5,0,5,���쓌,2.9,12,,
2020/8/15,2:00:00,4,��,3.2,15.2,99.9,4.5,0,4,��,4.3,51,,
2020/8/15,3:00:00,5,���쓌,2.2,15.4,100,2,0,4,��,4.5,14,,
2020/8/15,4:00:00,3,���k��,2.1,15.5,99.9,0.5,0,5,���쓌,4.1,7,,
2020/8/15,5:00:00,2,�k��,2.8,14.8,99.9,1.5,0,3,���k��,7.2,34,,
2020/8/15,6:00:00,1,�k�k��,1.5,14.8,99.8,0.5,0.02,2,�k��,4.7,1,,
2020/8/15,7:00:00,16,�k,1.1,15.3,99.9,1,0.07,16,�k,2.1,56,,
2020/8/15,8:00:00,2,�k��,1.1,15.3,99.8,0.5,0.08,16,�k,2.7,10,,
2020/8/15,9:00:00,16,�k,0.9,16,99.6,1,0.13,1,�k�k��,2.2,38,,
2020/8/15,10:00:00,1,�k�k��,1.5,16.7,98.8,0,0.22,1,�k�k��,2.8,54,,
2020/8/15,11:00:00,2,�k��,2.4,18,94.9,0,0.35,2,�k��,3.6,39,,
2020/8/15,12:00:00,3,���k��,2.9,17.8,98.5,0,0.36,4,��,4.3,34,,
2020/8/15,13:00:00,3,���k��,1.8,18.3,96.7,0,0.28,2,�k��,3.3,28,,
2020/8/15,14:00:00,4,��,2.3,18.5,94.6,0,0.27,2,�k��,3.5,9,,
2020/8/15,15:00:00,4,��,2.7,19,97.3,0,0.2,4,��,4,52,,
2020/8/15,16:00:00,3,���k��,3.1,17.6,96.8,0,0.16,3,���k��,4.9,58,,
2020/8/15,17:00:00,3,���k��,3,16.9,98.2,0,0.08,4,��,4.9,7,,
2020/8/15,18:00:00,3,���k��,1.5,16.5,99.3,0,0.03,3,���k��,4,35,,
2020/8/15,19:00:00,3,���k��,2.1,16.3,99.7,0,0.01,3,���k��,3.6,59,,
2020/8/15,20:00:00,3,���k��,1.1,16.1,100,0,0,3,���k��,3.6,1,,
2020/8/15,21:00:00,5,���쓌,0.3,16,100,0,0,2,�k��,2,3,,
2020/8/15,22:00:00,4,��,0.5,15.9,100,0,0,2,�k��,2.5,39,,
2020/8/15,23:00:00,8,��,0.8,16,100,0,0,8,��,1.3,57,,
2020/8/15,0:00:00,16,�É�,0.1,16,100,0,0,7,��쓌,1.2,0,,
2020/8/16,1:00:00,10,�쐼,0.8,16.1,100,0,0,9,��쐼,1.3,56,,
2020/8/16,2:00:00,8,��,0.6,16.2,100,0,0,8,��,1.4,47,,
2020/8/16,3:00:00,10,�쐼,0.4,16.2,100,0,0,11,���쐼,0.9,51,,
2020/8/16,4:00:00,8,��,0.3,16.2,100,0,0,7,��쓌,0.8,58,,
2020/8/16,5:00:00,11,���쐼,1,16.2,100,0,0.01,9,��쐼,1.7,25,,
2020/8/16,6:00:00,12,��,1.1,16.6,100,0,0.07,12,��,2.1,50,,
2020/8/16,7:00:00,13,���k��,0.5,17.3,100,0,0.2,12,��,2.7,31,,
2020/8/16,8:00:00,12,��,0.4,18.2,98.9,0,0.26,6,�쓌,1.9,34,,
2020/8/16,9:00:00,7,��쓌,2.3,18.3,94.7,0,0.36,7,��쓌,3.4,59,,
2020/8/16,10:00:00,6,�쓌,2.5,20.8,90.2,0,0.76,6,�쓌,3.9,59,,
2020/8/16,11:00:00,7,��쓌,3.4,21,86.9,0,0.89,8,��,5.4,57,,
2020/8/16,12:00:00,7,��쓌,2.9,20.9,79.9,0,0.96,6,�쓌,4.8,4,,
2020/8/16,13:00:00,8,��,2.5,22.7,79,0,0.86,8,��,5.1,26,,
2020/8/16,14:00:00,8,��,2,24.9,75.5,0,0.78,8,��,4.8,17,,
2020/8/16,15:00:00,7,��쓌,2.2,24.2,76.5,0,0.64,7,��쓌,3.7,49,,
2020/8/16,16:00:00,7,��쓌,1.5,24.7,76.3,0,0.53,7,��쓌,3.1,8,,
2020/8/16,17:00:00,9,��쐼,1,23.9,76.1,0,0.33,7,��쓌,3,7,,
2020/8/16,18:00:00,4,��,2.7,19.2,94,0,0.12,4,��,6,45,,
2020/8/16,19:00:00,3,���k��,3.1,17.7,99,0,0.01,3,���k��,5.5,13,,
2020/8/16,20:00:00,3,���k��,3,17.5,99.6,0,0,3,���k��,5,52,,
2020/8/16,21:00:00,16,�k,0.6,17.5,99.8,0,0,3,���k��,3.7,18,,
2020/8/16,22:00:00,16,�k,0.7,17.4,99.5,0,0,2,�k��,1.9,41,,
2020/8/16,23:00:00,13,���k��,1,16.6,99.5,0,0,1,�k�k��,1.9,21,,
2020/8/16,0:00:00,11,���쐼,0.3,17.1,100,0,0,12,��,1,55,,
2020/8/17,1:00:00,14,�k��,1.1,17,100,0,0,14,�k��,1.8,58,,
2020/8/17,2:00:00,16,�k,1.1,16.8,100,0,0,14,�k��,2,4,,
2020/8/17,3:00:00,16,�k,0.4,16.3,100,0,0,16,�k,2.3,21,,
2020/8/17,4:00:00,2,�k��,1.4,16.3,100,0,0,2,�k��,2.3,34,,
2020/8/17,5:00:00,10,�쐼,0.7,16.4,100,0,0.01,9,��쐼,1.8,57,,
2020/8/17,6:00:00,16,�É�,0.2,17.5,100,0,0.09,9,��쐼,2.3,25,,
2020/8/17,7:00:00,16,�k,0.4,18.8,100,0,0.13,16,�k,1.7,26,,
2020/8/17,8:00:00,14,�k��,1,19.6,96,0,0.16,14,�k��,2.5,24,,
2020/8/17,9:00:00,13,���k��,1.7,21.9,83.5,0,0.41,12,��,3.5,19,,